Flag for Canada Weather past 2 weeks in Quispamsis, New Brunswick, Canada

Now
63 °F

Scattered clouds.


Feels Like: 63 °F
Forecast: 56 / 76 °F
Wind: 5 mph from South

Location: Saint John

Current Time: Aug 1, 2015 at 9:36:07 PM

Latest Report: Aug 1, 2015 at 9:00 PM


Visibility: 15 mi

Pressure: 29.70 "Hg

Humidity: 88%

Dew point: 59 °F

Location of QuispamsisLocation

Historic Weather in Quispamsis — Graph

°F

Quispamsis temperature yesterday

Maximum temperature yesterday: 73 °F (at 2:00 PM)
Minimum temperature yesterday: 61 °F (at 6:00 AM)
Average temperature yesterday: 67 °F

Past Weeks' High & Low Weather Summary

 TemperatureHumidityPressure
High79 °F (Jul 29, 2:00 PM)100% (Jul 19, 4:00 AM)30.11 "Hg (Jul 19, 4:00 AM)
Low48 °F (Jul 18, 5:00 AM)48% (Jul 30, 3:00 PM)29.54 "Hg (Jul 22, 7:00 AM)
Average63 °F87%29.86 "Hg
* Reported Jul 17 8:00 PM — Aug 1 8:00 PM, Quispamsis, Weather by CustomWeather, © 2015

Note: Actual official high and low records may vary slightly from our data, if they occured in-between our weather recording intervals... More about our weather records

Advertising

Quispamsis weather history for previous 24 hours

 ConditionsComfort  
Time TempWeatherWind HumidityBarometerVisibility
8:00 PM
Sat, Aug 1
64 °FPartly sunny.6 mph83%29.70 "Hg15 mi
7:00 PM66 °FPartly sunny.12 mph73%29.69 "Hg15 mi
6:00 PM73 °FScattered clouds.14 mph57%29.69 "Hg15 mi
5:00 PM75 °FBroken clouds.16 mph54%29.69 "Hg15 mi
4:00 PM77 °FPartly sunny.21 mph54%29.70 "Hg15 mi
3:00 PM75 °FScattered clouds.17 mph57%29.72 "Hg15 mi
2:00 PM77 °FPassing clouds.21 mph51%29.73 "Hg15 mi
1:00 PM77 °FPassing clouds.16 mph51%29.75 "Hg15 mi
12:00 PM77 °FPassing clouds.14 mph54%29.75 "Hg15 mi
11:00 AM77 °FPassing clouds.9 mph57%29.75 "Hg15 mi
10:00 AM73 °FPassing clouds.9 mph61%29.75 "Hg15 mi
9:00 AM70 °FPassing clouds.6 mph73%29.75 "Hg15 mi
8:00 AM61 °FSunny.5 mph88%29.75 "Hg15 mi
7:00 AM52 °FFog.No wind100%29.74 "Hg15 mi
6:00 AM48 °FFog.No wind100%29.73 "Hg15 mi
5:00 AM50 °FClear.No wind100%29.73 "Hg15 mi
4:00 AM54 °FClear.No wind94%29.73 "Hg15 mi
3:00 AM52 °FClear.2 mph100%29.73 "Hg15 mi
2:00 AM54 °FClear.2 mph100%29.73 "Hg15 mi
1:00 AM54 °FClear.No wind100%29.73 "Hg15 mi
12:00 AM59 °FPassing clouds.2 mph94%29.72 "Hg15 mi
11:00 PM
Fri, Jul 31
61 °FPassing clouds.3 mph88%29.71 "Hg15 mi
10:00 PM63 °FPassing clouds.6 mph83%29.70 "Hg15 mi
9:00 PM66 °FPassing clouds.5 mph73%29.68 "Hg15 mi
Weather by CustomWeather, © 2015

See weather overviewHow to use our weather pages